Location: Unspecified
(0.0000°N, 0.0000°E)
Time: 03:24:16
(UTC+00:00)

XW-2C - Visible Passes

Search period start: 26 April 2018 00:00
Search period end: 06 May 2018 00:00
Orbit: 511 x 530 km, 97.5° (Epoch: 25 April)

Date Brightness Start Highest point End Pass type
(mag) Time Alt. Az. Time Alt. Az. Time Alt. Az.
28 Apr ? 05:22:00 10° NNE 05:25:30 39° E 05:29:00 10° S visible
29 Apr ? 05:09:09 10° NE 05:12:11 24° ESE 05:15:14 10° SSE visible
29 Apr ? 18:37:50 10° SW 18:39:28 12° WSW 18:41:05 10° WNW visible
30 Apr ? 04:56:44 10° ENE 04:58:53 15° ESE 05:01:04 10° SE visible
30 Apr ? 18:23:21 10° SSW 18:26:10 20° WSW 18:28:59 10° NW visible
05 May ? 05:22:44 10° NNE 05:26:14 40° ESE 05:29:44 10° S visible
